This demonstration page uses our WeatherBlox Daily Observations layout. Learn more.

Left ArrowRight Arrow

Hourly Observations for April 2, 2018

Temp ( °F °C ) Dew Point ( °F °C ) Humidity (%) Winds ( mph kmh ) Pressure ( in mb ) Visibility ( mi km ) Precip ( " mm )
12:51 am 00:51 Clear 62 16.7 9 -12.8 12 12 NW 8 13 29.75 1007 10 16 0.00 0.00
1:51 am 01:51 Clear 52 11.1 16 -8.9 24 24 VRB 5 7 29.76 1008 10 16 0.00 0.00
2:51 am 02:51 Clear 48 8.9 15 -9.4 27 27 SE 5 7 29.76 1008 10 16 0.00 0.00
3:51 am 03:51 Clear 45 7.2 14 -10 29 29 SE 6 9 29.75 1007 10 16 0.00 0.00
4:51 am 04:51 Clear 46 7.8 15 -9.4 29 29 SE 6 9 29.75 1008 10 16 0.00 0.00
5:51 am 05:51 Clear 46 7.8 14 -10 27 27 SE 6 9 29.76 1008 10 16 0.00 0.00
6:51 am 06:51 Sunny 47 8.3 15 -9.4 28 28 SE 6 9 29.79 1009 10 16 0.00 0.00
7:51 am 07:51 Sunny 56 13.3 14 -10 19 19 Calm 29.79 1009 10 16 0.00 0.00
8:51 am 08:51 Sunny 67 19.4 10 -12.2 11 11 ESE 8 13 29.78 1009 10 16 0.00 0.00
9:51 am 09:51 Sunny 70 21.1 10 -12.2 10 10 SE 7 11 29.78 1009 10 16 0.00 0.00
10:51 am 10:51 Sunny 73 22.8 7 -13.9 7 7 S 6 9 29.76 1008 10 16 0.00 0.00
11:51 am 11:51 Sunny 75 23.9 3 -16.1 6 6 W 5 7 29.73 1007 10 16 0.00 0.00
12:51 pm 12:51 Sunny 78 25.6 2 -16.7 5 5 VRB 3 6 29.67 1005 10 16 0.00 0.00
1:51 pm 13:51 Sunny 80 26.7 3 -16.1 5 5 VRB 5 7 29.66 1005 10 16 0.00 0.00
2:51 pm 14:51 Sunny 84 28.9 4 -15.6 4 4 VRB 3 6 29.62 1003 10 16 0.00 0.00
3:51 pm 15:51 Sunny 83 28.3 5 -15 5 5 W 9 15 29.61 1003 10 16 0.00 0.00
4:51 pm 16:51 Sunny 83 28.3 7 -13.9 5 5 W 6 9 29.59 1002 10 16 0.00 0.00
5:51 pm 17:51 Sunny 82 27.8 10 -12.2 6 6 W 20 31 29.59 1002 10 16 0.00 0.00
6:51 pm 18:51 Clear 77 25 11 -11.7 8 8 W 14 22 29.61 1003 10 16 0.00 0.00
7:51 pm 19:51 Clear 69 20.6 12 -11.1 11 11 WNW 8 13 29.63 1004 10 16 0.00 0.00
8:51 pm 20:51 Clear 66 18.9 10 -12.2 11 11 NW 10 17 29.65 1004 10 16 0.00 0.00
9:51 pm 21:51 Clear 67 19.4 5 -15 8 8 NW 12 19 29.66 1004 10 16 0.00 0.00
10:51 pm 22:51 Clear 67 19.4 7 -13.9 9 9 NW 14 22 29.67 1005 10 16 0.00 0.00
11:51 pm 23:51 Clear 64 17.8 9 -12.8 11 11 NW 10 17 29.68 1005 10 16 0.00 0.00

Powered by AerisWeather